Location: Pitton
(51.0667°N, 1.7000°W)
Time: 23:04:55
(UTC+00:00)

SPOT 3 Rocket - Pass Details

Date: 17 September 2019
Orbit: 779 x 794 km, 98.8° (Epoch: 13 October)

Event Time Altitude Azimuth Distance (km) Brightness Sun altitude
Exits shadow 19:01:50 - 145° (SE) 3,202 6.3 -7.8°
Reaches altitude 10° 19:04:03 10° 140° (SE) 2,331 5.5 -8.1°
Maximum altitude 19:08:59 49° 67° (ENE) 1,009 3.8 -8.8°
Drops below altitude 10° 19:13:56 10° 354° (N) 2,347 6.3 -9.6°
Sets 19:16:19 0° 349° (NNW) 3,281 7.2 -10.0°
